Flag for U.S.A. Weather past 2 weeks in Baltimore, Maryland, U.S.A.

Now
41 °F

Passing clouds.


Feels Like: 33 °F
Forecast: 33 / 50 °F
Wind: 14 mph from Northwest

Location: Baltimore-Washington International Airport


UV Index: 5 (Moderate)

Visibility: 10 mi


Pressure: 30.45 "Hg

Humidity: 32%

Dew point: 13 °F

Location of BaltimoreLocation

Historic Weather in Baltimore

°F

Baltimore temperature yesterday

Maximum temperature yesterday: 66 °F (at 12:54 PM)
Minimum temperature yesterday: 36 °F (at 8:54 PM)
Average temperature yesterday: 55 °F

Past Weeks' High & Low Weather Summary

 TemperatureHumidityPressure
High83 °F (Apr 13, 3:54 PM)100% (Apr 5, 6:54 AM)30.45 "Hg (Apr 5, 6:54 AM)
Low31 °F (Apr 16, 5:54 AM)20% (Apr 6, 3:54 PM)29.46 "Hg (Apr 8, 6:54 AM)
Average55 °F60%29.97 "Hg
* Reported Apr 1 11:54 AM — Apr 16 11:54 AM, Baltimore, Weather by CustomWeather, © 2014

Note: Actual official high and low records may vary slightly from our data, if they occured in-between our weather recording intervals... More about our weather records

Advertising

Historic Weather Conditions — Data for Previous 24 hours

 ConditionsComfort  
Time TempWeatherWind HumidityBarometerVisibility
11:54 AM
Apr 16
41 °FPassing clouds.14 mph32%30.45 "Hg10 mi
10:54 AM39 °FPassing clouds.13 mph36%30.43 "Hg10 mi
9:54 AM36 °FPassing clouds.13 mph38%30.41 "Hg10 mi
8:54 AM35 °FPassing clouds.14 mph40%30.37 "Hg10 mi
7:54 AM33 °FPassing clouds.14 mph45%30.33 "Hg10 mi
6:54 AM31 °FPassing clouds.10 mph49%30.29 "Hg10 mi
5:54 AM31 °FPassing clouds.12 mph49%30.23 "Hg10 mi
4:54 AM32 °FPassing clouds.8 mph50%30.20 "Hg10 mi
3:54 AM32 °FPassing clouds.10 mph50%30.17 "Hg10 mi
2:54 AM33 °FPassing clouds.15 mph52%30.11 "Hg10 mi
1:54 AM34 °FPassing clouds.17 mph54%30.08 "Hg10 mi
12:54 AM36 °FPartly cloudy.18 mph54%30.06 "Hg10 mi
11:54 PM
Apr 15
37 °FMostly cloudy.13 mph67%30.03 "Hg10 mi
10:54 PM37 °FOvercast.12 mph86%30.00 "Hg10 mi
9:54 PM36 °FLight rain. Overcast.7 mph92%29.96 "Hg10 mi
8:54 PM36 °FLight rain. Fog.12 mph92%29.93 "Hg5 mi
6:54 PM42 °FLight rain. Fog.12 mph85%29.80 "Hg4 mi
5:54 PM44 °FLight rain. Fog.15 mph85%29.76 "Hg4 mi
4:54 PM46 °FLight rain. Fog.14 mph89%29.72 "Hg3 mi
3:54 PM49 °FLight rain. Fog.13 mph86%29.67 "Hg3 mi
2:54 PM52 °FLight rain. Fog.12 mph89%29.61 "Hg3 mi
1:54 PM61 °FLight rain. Fog.25 mph90%29.55 "Hg2 mi
Weather by CustomWeather, © 2014

See weather overview